SCP
0 0 0 0 0 0 0 0 1 2 4 5 5 5 5 4 5 6 6 6 7 7 6 6 6 8 11 13 14 14 12 11 11 11 10 10 10 11 11 11 10 10 9 8
0 0 0 0 0 0 0 0 1 3 4 5 6 5 4 4 4 5 6 7 7 7 7 6 7 8 10 12 14 14 13 12 11 11 9 8 9 11 12 13 13 12 10 9
1 1 1 1 1 1 1 1 2 3 5 6 6 6 5 5 5 5 6 8 8 8 7 7 7 8 9 12 14 14 13 11 10 10 9 7 7 9 11 13 15 14 13 11
1 1 1 1 1 2 2 3 3 4 5 6 7 7 7 6 6 6 8 9 9 7 7 7 7 8 9 11 12 13 12 10 9 9 8 7 7 8 10 11 13 14 14 13
1 1 1 1 2 2 3 3 4 4 4 5 6 7 7 6 7 7 9 10 9 7 7 8 8 9 9 9 10 10 10 9 9 9 8 8 9 9 10 10 10 11 12 13
1 1 1 1 1 1 2 3 3 4 4 4 5 6 6 6 8 9 10 10 9 8 8 8 9 10 9 8 8 8 8 8 8 9 9 9 10 11 11 10 9 9 10 10
1 1 1 1 1 1 2 3 3 4 4 4 5 6 7 9 10 11 10 9 10 10 9 10 10 10 9 8 7 7 7 8 8 9 9 9 10 11 10 9 8 7 7 7
1 1 2 2 2 2 3 3 4 4 5 5 6 7 9 11 11 10 9 10 11 12 13 14 13 11 10 9 9 8 8 9 9 8 7 7 8 9 8 7 6 6 5 5
3 2 2 3 3 3 4 5 5 5 5 5 6 7 9 11 10 10 11 13 15 17 18 17 14 11 9 10 10 10 9 9 8 6 5 5 7 7 7 7 6 5 5 5
4 3 3 3 3 3 5 5 5 5 6 6 5 6 9 11 12 13 15 17 19 20 18 15 11 8 8 8 9 9 8 7 6 5 5 5 6 6 6 6 5 5 5 5
3 3 3 3 3 3 5 5 5 5 6 6 6 8 11 13 14 15 16 17 17 15 13 10 8 6 6 6 7 7 6 5 5 4 4 4 5 5 4 4 4 4 4 4
2 2 3 3 4 4 4 5 5 5 6 6 7 9 11 12 13 14 13 12 10 9 8 8 7 6 6 7 7 7 6 6 5 4 4 4 4 4 3 2 2 2 2 2
1 2 3 5 5 4 4 4 5 4 4 5 6 7 9 10 11 10 9 7 6 6 7 9 9 9 9 10 9 8 8 7 6 5 4 4 4 3 3 2 1 1 1 1
2 3 4 5 5 4 3 4 4 4 4 5 5 6 7 9 9 9 7 6 5 6 8 10 11 11 11 11 10 9 8 7 6 5 4 4 3 3 3 3 2 2 1 1
3 4 4 4 3 3 3 3 3 4 5 6 7 7 8 9 9 9 7 5 6 8 10 10 10 10 9 8 8 7 5 4 4 3 3 2 2 2 3 3 3 3 2 2
2 3 3 3 3 3 3 3 3 4 5 7 9 9 9 9 8 8 6 6 6 8 9 9 7 6 5 5 5 4 3 2 2 2 2 2 2 2 2 3 3 3 3 3
1 2 2 2 3 3 3 3 3 3 4 6 8 9 9 7 6 6 6 6 7 8 8 7 4 3 2 2 3 3 3 2 1 1 1 2 2 2 2 2 2 3 3 3
1 1 2 3 3 3 3 3 3 3 4 5 6 7 6 5 4 4 5 5 7 8 8 6 4 2 2 1 2 3 4 3 2 2 2 1 1 1 1 2 2 2 2 2
2 2 2 3 3 3 3 3 4 4 5 6 6 5 4 4 4 4 4 5 7 8 9 6 4 3 2 1 1 3 3 3 2 2 2 1 1 1 1 1 1 2 2 2
2 2 2 2 2 2 3 4 6 6 6 6 7 6 4 4 4 5 5 5 7 10 10 7 4 3 2 1 1 2 3 3 3 2 2 2 1 1 1 1 1 1 1 1
3 3 3 4 4 4 4 5 6 6 6 7 8 6 5 5 5 5 5 6 9 10 10 7 5 4 3 2 1 2 2 2 2 2 2 2 2 2 1 1 1 1 1 1
4 5 5 6 7 7 6 6 6 5 5 6 7 6 5 5 5 5 6 8 9 9 8 7 6 4 2 2 2 2 2 2 2 2 3 2 2 2 2 2 1 1 1 1
6 6 7 7 8 8 7 6 5 4 4 5 6 6 5 4 5 6 7 8 8 6 6 6 4 2 2 2 3 3 2 2 2 2 2 2 2 2 2 1 1 1 1 1
6 7 7 7 7 6 6 5 4 3 3 4 6 7 6 5 6 9 9 7 5 4 4 3 1 1 1 3 3 3 3 2 2 2 2 2 2 2 1 1 1 1 1 1
7 7 6 6 5 4 4 3 3 2 2 2 4 6 7 6 8 10 10 7 3 3 3 2 0 0 2 3 3 2 2 2 1 1 2 2 2 1 1 1 1 1 1 1
5 5 4 4 3 3 2 2 1 1 1 1 2 4 6 7 8 10 9 6 4 3 3 2 1 1 2 2 2 2 1 1 1 1 1 1 1 1 1 1 1 1 1 1
3 3 3 2 2 2 1 1 1 1 1 1 1 3 5 7 8 9 8 7 5 4 3 2 2 1 2 2 1 1 1 1 0 1 1 1 1 1 1 0 0 1 1 1
Wind_Speed
14 13 12 11 12 13 12 11 9 6 5 6 5 3 4 7 7 6 6 6 6 6 6 6 5 5 5 4 4 4 5 5 5 4 3 3 3 3 3 3 3 2 2 2
14 16 14 13 13 14 12 11 10 8 3 5 5 3 4 6 6 7 6 5 6 7 6 6 5 4 4 4 4 4 4 4 4 4 3 3 3 3 3 2 2 2 2 2
12 12 13 14 11 10 9 8 8 7 3 6 6 3 4 5 6 6 6 6 6 6 6 6 6 5 4 4 3 4 3 3 3 3 3 3 3 3 3 3 2 2 2 2
11 11 14 9 6 5 4 4 2 2 3 5 7 5 5 5 5 5 5 6 6 4 4 5 5 5 4 4 3 3 3 3 2 2 2 2 2 2 2 2 2 3 3 3
9 11 12 8 5 5 5 3 1 2 3 4 7 6 6 6 6 5 4 4 5 4 4 4 4 4 3 3 3 3 3 2 2 1 1 2 2 2 1 2 3 3 3 3
10 11 11 5 3 5 4 3 2 3 3 2 4 4 4 5 5 4 4 5 5 4 4 5 4 3 3 3 3 2 2 2 1 2 2 2 1 2 1 2 3 3 2 2
11 11 7 3 3 4 5 1 2 4 4 2 2 3 4 3 4 4 4 5 4 4 4 4 3 3 2 2 1 1 1 1 1 1 2 2 2 2 2 3 3 3 3 3
9 10 5 5 2 2 2 3 3 4 5 5 5 5 4 4 5 5 4 5 4 4 4 4 3 3 2 1 1 1 0 0 0 1 2 2 1 2 2 3 3 4 4 3
4 2 2 5 5 4 3 3 3 4 4 4 4 4 5 4 5 4 4 4 4 4 4 3 3 2 2 1 1 0 0 0 1 1 1 2 2 3 3 3 4 3 3 2
3 2 2 3 4 5 5 3 3 3 4 2 3 4 5 4 3 4 4 3 3 3 3 3 2 2 2 1 1 0 1 1 2 2 2 2 2 2 3 3 3 2 2 2
2 0 0 2 3 4 4 4 4 4 3 3 4 4 4 3 3 4 3 3 3 2 2 2 2 2 2 1 1 1 2 2 3 3 2 1 1 2 2 1 2 2 2 2
2 1 1 1 3 3 4 4 5 4 4 4 3 4 3 3 3 3 3 3 2 2 2 2 2 1 1 0 0 1 2 2 2 2 2 1 1 1 1 0 0 1 2 2
3 2 1 0 2 2 3 3 4 4 3 3 3 3 3 3 3 3 3 2 2 2 2 2 1 1 1 0 0 1 2 2 3 3 2 2 2 2 2 1 0 1 2 3
3 2 1 1 1 2 3 3 3 3 3 2 2 2 3 3 3 3 2 1 1 1 1 1 1 1 1 1 1 1 3 2 3 3 3 3 3 3 3 3 2 2 3 5
2 1 1 1 2 3 3 2 2 2 3 3 2 3 3 3 2 2 1 1 1 1 0 1 1 1 1 2 2 3 3 2 2 3 3 3 3 3 4 3 2 2 2 3
2 1 2 1 1 2 2 2 2 2 2 3 3 3 3 2 1 1 1 1 0 0 0 0 0 1 2 2 3 3 2 3 3 3 4 3 3 3 3 3 2 2 2 1
2 1 2 2 0 1 1 1 2 2 3 3 3 2 2 1 1 0 0 0 0 0 1 1 1 1 2 3 4 4 3 3 5 4 4 3 3 3 3 3 3 2 2 1
2 2 2 1 1 1 0 0 1 2 2 2 2 1 1 1 1 0 1 1 0 1 1 0 1 1 2 3 4 4 3 4 4 3 3 3 3 3 3 3 3 3 2 2
1 2 2 1 1 1 1 1 1 1 1 1 2 2 2 2 1 1 1 1 2 1 1 1 1 3 3 2 3 3 4 5 4 3 3 3 4 4 3 3 3 3 2 2
1 2 2 1 2 2 1 1 1 2 2 2 2 2 1 2 2 2 2 3 2 0 0 0 2 3 3 2 3 5 5 4 4 4 4 3 3 3 3 4 3 2 2 2
1 1 0 0 1 1 2 2 2 2 2 2 2 2 2 2 2 2 3 3 1 1 1 1 3 2 2 3 5 5 4 4 4 3 3 3 3 3 3 3 3 3 2 2
2 1 1 1 1 1 1 2 1 1 2 2 2 2 2 2 3 3 3 2 1 1 2 2 1 2 3 5 5 5 4 4 3 3 2 2 3 3 3 3 3 3 2 2
1 2 1 1 1 2 2 2 2 2 2 2 3 3 3 3 3 2 2 1 1 1 2 1 1 1 3 4 5 4 4 3 3 3 3 3 2 2 2 3 3 2 2 3
2 1 1 2 2 2 2 3 2 2 2 2 3 3 3 3 2 1 1 0 1 1 1 0 2 2 3 4 4 3 3 3 3 2 2 2 2 2 2 3 3 2 1 2
1 1 1 2 2 2 2 2 2 2 2 2 2 2 2 1 1 1 1 1 1 1 1 1 3 3 4 4 3 2 3 2 2 2 2 2 2 2 2 2 3 2 2 2
1 2 1 2 2 2 2 2 2 2 2 1 2 2 2 1 1 1 0 0 1 2 2 1 2 3 4 3 2 2 2 1 1 1 1 1 1 2 1 2 3 2 2 1
2 1 1 1 2 2 2 2 2 2 2 2 2 2 2 1 1 1 1 1 1 1 2 2 2 2 1 1 1 1 0 0 1 1 1 1 1 1 2 2 2 2 2 2
Wind_Direction
267 269 264 259 250 248 248 259 267 260 191 177 175 163 125 124 132 131 131 136 131 127 128 121 126 133 141 150 145 151 155 159 161 165 169 170 172 175 180 194 199 197 207 217
268 266 262 262 252 247 242 247 253 258 221 133 131 130 129 127 134 136 133 141 136 132 128 127 130 133 128 131 139 144 149 149 151 161 168 173 181 183 187 194 205 203 216 228
271 271 269 261 256 246 240 248 253 255 176 127 121 122 123 135 134 129 135 131 132 135 145 145 145 133 131 126 127 130 133 137 149 160 175 186 200 193 198 201 211 220 222 224
267 273 260 258 272 270 253 253 269 63 96 119 115 104 94 95 95 103 118 120 126 132 133 132 138 144 147 142 134 132 132 137 151 175 181 185 191 203 215 216 219 227 229 223
259 261 259 258 260 266 251 241 277 107 101 127 128 118 100 93 92 97 105 104 115 123 119 112 116 130 136 143 138 139 144 155 166 169 194 198 194 205 215 227 236 237 230 222
250 260 262 262 273 279 244 217 27 95 126 145 137 126 109 100 96 91 100 108 112 113 111 109 111 123 135 144 142 150 149 161 162 181 217 227 222 232 239 251 255 250 246 243
250 253 258 322 328 297 259 159 41 54 89 106 86 100 112 115 102 93 92 92 99 104 103 98 106 116 124 121 125 117 107 109 148 200 242 234 234 246 250 255 259 254 253 252
245 249 254 344 2 13 43 72 63 59 65 73 86 96 110 127 117 110 104 95 92 88 87 84 85 100 112 113 84 84 110 183 216 234 265 270 244 249 255 258 258 253 249 249
243 226 67 26 53 67 62 62 58 66 73 86 95 109 107 96 97 102 97 95 91 93 90 88 94 111 126 102 89 67 38 288 258 253 253 262 256 250 246 246 249 249 246 247
255 134 66 47 44 41 38 36 40 71 85 100 115 118 114 108 106 106 95 87 90 100 100 97 96 93 87 94 107 129 246 258 258 243 236 244 246 252 253 258 260 265 270 261
255 312 259 20 33 29 35 26 33 58 67 74 106 113 112 110 104 102 101 88 79 79 90 87 80 89 87 76 97 258 253 256 260 262 253 243 252 289 274 315 290 262 272 274
260 279 304 351 7 22 39 28 31 41 38 33 65 90 90 85 87 91 88 80 76 76 78 91 99 90 73 79 54 290 280 274 275 271 263 250 249 277 22 202 153 178 222 232
325 314 296 354 18 37 50 38 39 41 39 25 46 75 89 89 88 83 84 90 93 91 88 92 93 78 45 24 292 272 279 283 289 290 278 262 262 257 252 262 253 240 234 212
346 0 5 60 48 55 52 33 29 29 32 29 33 79 87 87 88 83 78 73 79 87 92 90 76 46 11 345 303 273 275 271 280 283 276 271 270 269 264 248 231 232 227 211
353 337 301 50 40 53 51 28 27 30 24 39 47 69 75 69 69 59 56 56 61 70 92 37 32 19 343 306 284 274 277 274 282 292 285 277 269 261 260 262 253 232 216 200
296 322 335 290 174 89 52 31 357 4 34 35 49 61 62 70 69 46 26 63 103 306 62 66 340 313 304 299 288 276 271 270 268 276 279 279 275 273 270 271 265 241 228 221
251 251 282 280 185 116 77 14 345 25 25 25 30 39 54 80 96 91 247 257 111 172 255 238 255 289 289 291 287 279 275 254 249 260 271 279 286 293 291 284 280 267 249 213
258 249 267 316 340 326 343 71 38 48 26 10 352 352 343 332 273 235 274 280 251 266 284 336 14 289 280 288 294 293 290 277 260 264 273 282 286 280 278 276 271 266 259 215
183 128 107 49 8 342 7 21 17 18 3 1 344 339 351 343 320 299 293 269 254 249 291 8 323 282 280 289 298 282 276 278 278 278 274 261 266 273 276 275 268 257 258 258
148 103 91 72 17 354 350 16 11 12 16 6 338 329 321 306 296 288 278 271 267 294 284 290 267 270 274 285 291 283 282 282 285 284 278 269 266 269 272 272 272 270 263 256
101 86 84 77 42 9 341 346 5 0 351 340 318 304 294 290 280 271 266 268 284 347 299 252 258 279 307 313 282 278 280 282 281 281 284 285 282 285 290 295 292 290 287 284
109 83 57 56 39 349 338 335 337 325 316 316 309 304 298 289 278 266 264 271 243 175 252 261 272 11 341 305 284 285 288 292 296 302 297 292 290 288 288 292 294 296 299 293
59 47 32 6 333 318 320 322 320 313 303 301 297 288 285 284 274 267 271 271 249 218 268 291 46 41 321 290 286 289 298 307 312 306 298 293 288 288 292 290 290 299 314 311
29 39 4 334 320 308 303 301 307 304 287 277 273 278 281 278 293 324 336 97 98 200 280 190 170 248 281 279 283 295 304 308 313 310 308 315 315 307 304 301 301 298 297 297
333 340 330 316 303 297 290 286 290 286 281 298 309 319 306 306 301 343 46 50 78 235 269 236 229 247 265 276 291 308 310 323 324 327 329 327 322 321 330 323 321 326 333 333
253 268 284 282 292 303 304 307 303 305 306 324 340 348 352 7 41 42 111 152 339 314 301 279 240 239 258 275 294 304 311 320 322 332 330 315 317 322 327 320 319 319 327 339
258 266 267 275 284 301 317 319 321 324 325 333 331 329 334 338 355 4 6 55 39 317 311 295 278 250 258 294 306 300 284 321 354 349 343 350 338 326 317 317 317 323 340 358